Location: Clinton NY
(43.0598°N, 75.3602°W)
Time: 23:46:19
(UTC-04:00)

Daily predictions for brighter satellites

Satellite Brightness Start Highest point End
(mag) Time Altitude Azimuth Time Altitude Azimuth Time Altitude Azimuth
Cosmos 2360 Rocket 2.4 21:13:45 10° NNW 21:19:22 60° ENE 21:24:56 10° SE
SL-16 R/B 2.9 21:14:57 10° NNW 21:20:29 54° WSW 21:25:59 10° S
In-Cosmos 22 4.5 21:15:47 10° SSW 21:21:33 82° W 21:27:20 10° N
Envisat 3.1 21:18:00 10° SSE 21:23:02 69° ENE 21:28:06 10° N
PSLV R/B 3.9 21:22:39 10° SE 21:25:33 38° ENE 21:28:25 10° N
Cosmos 304 Rocket 4.0 21:21:42 10° NNW 21:26:29 57° ENE 21:31:12 10° SSE
ERS-1 Rocket 3.4 21:22:06 10° S 21:27:06 66° WSW 21:32:08 10° NNW
Cosmos 1437 3.5 21:26:33 10° SSE 21:29:35 36° E 21:32:38 10° NNE
Cosmos 1908 3.2 21:26:20 10° N 21:30:15 78° E 21:34:09 10° SSE
MetOp-B 4.5 21:25:14 10° SE 21:30:24 52° ENE 21:35:36 10° N
Meteor 2-20 4.5 21:24:17 10° S 21:30:26 79° E 21:36:35 10° N
Cosmos 2112 Rocket 4.3 21:27:35 10° NNW 21:32:44 55° ENE 21:37:53 10° SE
H-2A R/B 2.4 21:29:50 10° S 21:34:21 73° WSW 21:38:54 10° NNW
Cosmos 1777 Rocket 4.3 21:35:03 10° SSW 21:40:18 76° WNW 21:45:35 10° NNE
DELTA 2 R/B (1) 4.0 21:36:35 10° W 21:41:54 48° SSW 21:46:52 12° SE
NOSS 3-1 (C) 3.9 21:37:22 10° S 21:42:40 37° ESE 21:48:27 10° NE
Cosmos 1674 2.7 21:39:46 10° S 21:43:36 87° WNW 21:47:29 10° N
ATLAS CENTAUR R/B 4.1 21:43:50 10° W 21:45:26 12° WSW 21:47:01 10° SW
Cosmos 2227 Rocket 4.0 21:45:19 11° ESE 21:47:24 13° E 21:49:47 10° ENE
Cosmos 1939 Rocket 3.8 21:48:03 10° S 21:51:50 44° W 21:55:35 10° NNW
Cosmos 1833 4.4 21:48:15 10° SSW 21:53:57 79° WNW 21:59:40 10° NNE
Cosmos 1300 3.2 21:50:25 10° N 21:54:06 42° ENE 21:56:54 16° SE
Cosmos 405 3.8 21:52:07 10° NNW 21:55:40 52° W 21:59:11 10° S
Cosmos 2333 Rocket 3.7 21:51:46 10° N 21:56:32 26° NE 22:01:13 10° ESE
SL-16 R/B 4.5 21:56:06 10° NNE 21:58:30 13° NE 22:00:53 10° ENE
Cosmos 1437 Rocket 4.3 21:57:01 10° NNW 22:00:28 33° W 22:03:56 10° SSW
H-2A R/B 3.2 21:58:30 14° ESE 22:02:25 32° ENE 22:07:10 10° N
Terra 3.2 22:00:09 13° ESE 22:03:20 26° ENE 22:07:14 10° N
YAOGAN 6 2.5 22:00:51 14° SSE 22:03:55 86° ENE 22:07:33 10° N
CZ-2C R/B 3.9 22:01:43 10° SSW 22:04:48 23° W 22:08:04 10° NW
COSMOS 2428 2.8 22:02:57 10° NNW 22:08:39 73° ENE 22:13:00 18° SSE
Cosmos 1680 Rocket 3.9 22:04:25 10° NNW 22:09:37 62° WSW 22:14:22 12° S
CZ-4 SHROUD 4.4 22:08:08 10° S 22:11:04 39° W 22:14:03 10° NNW
CZ-4B R/B 3.5 22:06:29 10° NNE 22:11:47 76° ESE 22:16:59 10° S
Delta 2 Rocket 4.0 22:11:35 10° SW 22:14:25 23° S 22:15:00 22° SSE
SPOT 1/Viking Rocket 3.5 22:10:08 15° SSE 22:14:31 89° ENE 22:19:42 10° NNW
Cosmos 2297 Rocket 3.8 22:13:15 14° ESE 22:14:32 15° E 22:17:40 10° ENE
Cosmos 1455 4.0 22:13:55 10° NNE 22:16:41 19° ENE 22:18:08 16° E
CZ-4 R/B 3.9 22:16:05 10° NNE 22:21:02 67° ESE 22:25:20 13° S
Cosmos 2219 Rocket 2.7 22:15:39 10° NNW 22:21:03 47° ENE 22:24:46 19° SE
Cosmos 2242 Rocket 3.9 22:17:06 10° N 22:21:31 53° E 22:24:09 23° SSE
ARGOS 3.1 22:18:17 17° SSE 22:22:35 87° ENE 22:28:01 10° NNW
Cosmos 1898 Rocket 3.5 22:19:08 11° S 22:24:05 58° ESE 22:29:11 10° NNE
FALCON 9 R/B 4.3 21:56:21 10° WSW 22:26:33 58° S 22:33:41 12° ESE
CZ-4C R/B 3.2 22:26:40 28° SE 22:28:17 58° ENE 22:31:43 10° N
Cosmos 2150 Rocket 4.1 22:23:01 10° S 22:28:24 66° ESE 22:33:50 10° NNE
Cosmos 2237 4.3 22:24:31 10° NNW 22:30:15 73° WSW 22:34:15 20° SSE
USA 245 3.3 22:32:07 23° SSW 22:33:13 36° WSW 22:35:27 10° NNW
DELTA 2 DEB (DPAF) 4.1 22:31:49 24° SSE 22:34:29 76° ENE 22:38:59 10° N
CARTOSAT-1 3.9 22:34:08 26° SE 22:36:18 52° ENE 22:40:30 10° N
SeaSat 1 4.4 22:32:57 10° E 22:36:21 19° NE 22:39:44 10° N
SL-08 RB Rocket 3.7 22:34:43 22° S 22:37:37 77° W 22:42:07 10° NNW
Sich 1 3.0 22:34:24 16° S 22:37:53 87° W 22:42:19 10° N
Cosmos 1980 4.3 22:32:44 10° NNW 22:38:12 47° ENE 22:41:31 22° ESE
Cosmos 1633 Rocket 3.0 22:36:53 18° S 22:40:10 87° W 22:44:34 10° N
Cosmos 1726 2.5 22:37:14 10° NNW 22:40:59 63° W 22:43:05 24° S
Cosmos 2219 3.8 22:37:50 10° SW 22:43:31 59° WNW 22:49:12 10° NNE
Tiangong 1 2.2 22:40:51 10° SW 22:42:38 27° SSW 22:42:38 27° SSW
DMSP B5D2-2 4.3 22:40:04 10° NNE 22:45:09 51° E 22:47:50 26° SSE
Lacrosse 4 Rocket 3.7 22:42:26 10° N 22:45:24 17° NE 22:48:18 10° E
NOSS 3-1 (A) 3.3 22:39:58 10° SSW 22:45:51 79° SE 22:52:25 10° NE
Cosmos 2333 4.4 22:43:50 10° NNW 22:49:32 69° WSW 22:52:56 25° S
Cosmos 1271 Rocket 2.7 22:46:11 10° NNW 22:50:02 81° W 22:51:39 33° S
Cosmos 2237 Rocket 2.6 22:45:31 10° NNW 22:51:08 54° ENE 22:54:11 26° SE
SL-14 R/B 4.1 22:48:34 14° SSW 22:51:46 50° WNW 22:55:41 10° N
Cosmos 1703 3.1 22:50:01 29° S 22:51:54 87° E 22:55:50 10° N
Cosmos 2058 4.5 22:49:58 10° SW 22:53:41 33° WNW 22:57:25 10° N
Cosmos 2082 4.0 22:52:45 27° SSE 22:55:32 47° ESE 23:01:01 10° NE
USA 32 4.2 22:53:05 10° N 22:58:20 71° W 23:01:35 24° S
COSMOS 2455 3.8 22:57:06 10° NNW 23:02:42 38° NE 23:06:26 19° ESE
Iridium 2 3.8 23:01:05 32° SSW 23:02:42 73° W 23:06:35 10° N
Cosmos 2360 Rocket 4.2 22:58:50 10° NW 23:02:50 20° W 23:06:51 10° SW
Cosmos 1241 Rocket 4.5 22:59:19 20° S 23:03:35 58° ESE 23:09:42 10° NE
Meteor 2-10 4.3 22:59:45 10° NNW 23:05:28 77° W 23:08:40 27° S
ATLAS 2AS CENTAUR R/B 3.2 23:03:26 21° S 23:08:21 51° ESE 23:16:02 10° NE
Meteor 1-4 Rocket 3.6 23:04:49 10° NNW 23:08:23 41° W 23:09:49 28° SW
ERBS 3.7 23:12:02 27° ENE 23:12:02 27° ENE 23:13:55 10° ENE
Nadezhda 1 Rocket 4.0 23:08:02 10° N 23:14:08 81° W 23:17:27 29° S
Cosmos 1933 4.0 23:16:15 10° N 23:20:07 41° ENE 23:20:45 38° ESE
Cosmos 1626 2.1 23:20:38 51° SSW 23:21:30 80° W 23:25:17 10° N
IGS 5A 3.9 23:21:56 37° SSW 23:23:16 54° W 23:27:23 10° NNW
Cosmos 1937 Rocket 4.0 23:20:01 13° SW 23:24:33 58° WNW 23:29:42 10° NNE
COS B Rocket 4.0 23:22:04 10° NNE 23:25:36 37° E 23:25:48 37° E
ATLAS 3B R/B 3.1 23:19:11 10° NNW 23:26:10 57° NE 23:30:02 26° ESE
Cosmos 1745 Rocket 4.4 23:22:21 17° SSW 23:27:06 59° W 23:33:12 10° N
Cosmos 2227 Rocket 2.1 23:27:04 24° SSW 23:30:35 88° WNW 23:36:18 10° NNE
Cosmos 1470 Rocket 4.2 23:28:45 27° SW 23:30:50 49° WNW 23:35:03 10° N
Okean 1-7 4.0 23:27:33 10° N 23:31:26 32° ENE 23:32:05 31° E
Cosmos 1933 Rocket 4.2 23:29:58 27° SW 23:32:09 51° WNW 23:36:32 10° N
Cosmos 1703 Rocket 3.7 23:29:55 10° N 23:34:13 57° E 23:35:00 49° ESE
Cosmos 1709 Rocket 3.9 23:32:45 36° S 23:35:23 75° E 23:41:30 10° N
Cosmos 990 Rocket 4.3 23:33:45 22° SW 23:37:03 62° WNW 23:42:11 10° NNE
Cosmos 2221 Rocket 3.8 23:34:48 10° N 23:39:21 62° E 23:40:13 51° SE
Terra 2.9 23:39:02 26° SW 23:40:54 36° W 23:45:19 10° NNW
Cosmos 2333 Rocket 2.6 23:35:33 10° NNW 23:41:09 54° WSW 23:43:13 36° SSW
H-2A R/B 3.2 23:39:07 23° SW 23:41:43 36° W 23:46:43 10° NNW
SL-16 R/B 2.4 23:38:09 10° NNW 23:43:48 64° ENE 23:45:52 39° SE
Cosmos 1269 Rocket 4.0 23:41:12 10° NNW 23:46:33 81° ENE 23:48:05 48° SSE
GEOS 3 Rocket 4.1 23:46:32 29° ESE 23:48:58 53° NE 23:54:01 10° NNW
CZ-4C R/B 4.4 23:44:08 10° NNW 23:49:58 29° NE 23:56:18 10° E
Cosmos 1455 3.6 23:49:09 10° NNW 23:52:27 29° W 23:53:10 27° WSW
Cosmos 1900 4.3 23:48:04 10° NNW 23:53:05 81° ENE 23:54:15 53° SE
